Location: Borea
(45.6167°N, 23.0167°E)
Time: 16:07:37
(UTC+00:00)

FENGYUN 1C DEB - Pass Details

Date: 26 February 2024
Orbit: 561 x 661 km, 99.3° (Epoch: 16 April)

Event Time Altitude Azimuth Distance (km) Brightness Sun altitude
Rises 02:27:44 0° 20° (NNE) 3,094 ? -29.4°
Reaches altitude 10° 02:30:06 10° 26° (NNE) 2,156 ? -29.0°
Maximum altitude 02:34:40 48° 101° (E) 885 ? -28.2°
Enters shadow 02:35:27 43° 132° (SE) 943 ? -28.1°
